TimeCEST,TemperatureF,Dew PointF,Humidity,Sea Level PressureIn,VisibilityMPH,Wind Direction,Wind SpeedMPH,Gust SpeedMPH,PrecipitationIn,Events,Conditions,WindDirDegrees,DateUTC
12:45 AM,51.8,51.8,100,30.09,5.0,SSW,2.3,-,N/A,Fog,Fog,210,2012-10-03 22:45:00
1:45 AM,51.8,50.0,94,30.09,3.7,SSW,2.3,-,N/A,Fog,Fog,200,2012-10-03 23:45:00
2:00 AM,51,51,99,30.09,4,SSW,2.2,,,Fog,Patches of Fog,200,2012-10-04 00:00:00
2:45 AM,50.0,50.0,100,30.06,3.7,Calm,Calm,-,N/A,Fog,Fog,0,2012-10-04 00:45:00
3:45 AM,48.2,48.2,100,30.06,3.7,WSW,1.2,-,N/A,Fog,Fog,240,2012-10-04 01:45:00
4:45 AM,48.2,48.2,100,30.06,3.7,Calm,Calm,-,N/A,Fog,Fog,0,2012-10-04 02:45:00
5:45 AM,46.4,46.4,100,30.06,3.1,SSW,1.2,-,N/A,Fog,Fog,210,2012-10-04 03:45:00
6:15 AM,44.6,44.6,100,30.06,3.1,Calm,Calm,-,N/A,Fog,Fog,0,2012-10-04 04:15:00
6:37 AM,46.4,44.6,93,30.06,0.5,Calm,Calm,-,N/A,Fog,Patches of Fog,0,2012-10-04 04:37:00
6:45 AM,46.4,46.4,100,30.06,0.5,Calm,Calm,-,N/A,Fog,Patches of Fog,0,2012-10-04 04:45:00
7:15 AM,48.2,48.2,100,30.06,0.9,South,1.2,-,N/A,Fog,Fog,180,2012-10-04 05:15:00
7:45 AM,48.2,48.2,100,30.06,3.7,Calm,Calm,-,N/A,,Scattered Clouds,0,2012-10-04 05:45:00
8:00 AM,49,49,99,30.07,4,Calm,Calm,,,Fog,Light Fog,,2012-10-04 06:00:00
8:15 AM,53.6,51.8,94,30.06,3.7,Calm,Calm,-,N/A,,Scattered Clouds,0,2012-10-04 06:15:00
8:45 AM,57.2,55.4,94,30.06,3.7,Calm,Calm,-,N/A,,Scattered Clouds,0,2012-10-04 06:45:00
9:15 AM,59.0,53.6,82,30.06,5.0,NNE,2.3,-,N/A,,Scattered Clouds,20,2012-10-04 07:15:00
9:45 AM,62.6,53.6,72,30.06,-9999.0,NE,2.3,-,N/A,,Clear,50,2012-10-04 07:45:00
10:15 AM,64.4,53.6,68,30.06,-9999.0,North,2.3,-,N/A,,Clear,10,2012-10-04 08:15:00
10:45 AM,66.2,53.6,64,30.06,-9999.0,NNE,2.3,-,N/A,,Clear,30,2012-10-04 08:45:00
11:15 AM,68.0,51.8,56,30.06,-9999.0,North,2.3,-,N/A,,Clear,360,2012-10-04 09:15:00
11:45 AM,69.8,53.6,56,30.06,6.2,South,2.3,-,N/A,,Scattered Clouds,190,2012-10-04 09:45:00
12:15 PM,69.8,53.6,56,30.06,6.2,SW,3.5,-,N/A,,Scattered Clouds,220,2012-10-04 10:15:00
12:45 PM,71.6,51.8,50,30.06,6.2,SSW,1.2,-,N/A,,Partly Cloudy,200,2012-10-04 10:45:00
1:15 PM,71.6,51.8,50,30.04,6.2,NE,2.3,-,N/A,,Partly Cloudy,40,2012-10-04 11:15:00
1:45 PM,71.6,50.0,46,30.04,6.2,SE,2.3,-,N/A,,Partly Cloudy,130,2012-10-04 11:45:00
2:00 PM,71,51,37,30.02,16,SE,2.2,,,,Partly Cloudy,130,2012-10-04 12:00:00
2:15 PM,73.4,50.0,44,30.04,6.2,SE,2.3,-,N/A,,Partly Cloudy,140,2012-10-04 12:15:00
2:45 PM,73.4,51.8,47,30.01,6.2,NW,3.5,-,N/A,,Partly Cloudy,320,2012-10-04 12:45:00
3:15 PM,73.4,50.0,44,30.01,6.2,Calm,Calm,-,N/A,,Partly Cloudy,0,2012-10-04 13:15:00
3:45 PM,73.4,50.0,44,30.01,-9999.0,Calm,Calm,-,N/A,,Clear,0,2012-10-04 13:45:00
4:15 PM,73.4,46.4,38,29.98,-9999.0,SSE,2.3,-,N/A,,Clear,150,2012-10-04 14:15:00
4:45 PM,73.4,46.4,38,29.98,-9999.0,South,2.3,-,N/A,,Clear,170,2012-10-04 14:45:00
5:15 PM,73.4,46.4,38,29.98,-9999.0,Calm,Calm,-,N/A,,Clear,0,2012-10-04 15:15:00
5:45 PM,69.8,50.0,49,29.98,-9999.0,Calm,Calm,-,N/A,,Clear,0,2012-10-04 15:45:00
6:45 PM,62.6,51.8,68,29.98,-9999.0,ENE,2.3,-,N/A,,Clear,70,2012-10-04 16:45:00
7:15 PM,59.0,51.8,77,29.98,-9999.0,East,3.5,-,N/A,,Clear,90,2012-10-04 17:15:00
7:45 PM,57.2,51.8,82,29.98,-9999.0,East,2.3,-,N/A,,Clear,100,2012-10-04 17:45:00
8:00 PM,58,52,75,29.97,19,East,2.2,,,,Partly Cloudy,100,2012-10-04 18:00:00
8:15 PM,57.2,53.6,88,29.98,-9999.0,SE,1.2,-,N/A,,Clear,130,2012-10-04 18:15:00
8:45 PM,57.2,53.6,88,29.98,-9999.0,SSE,1.2,-,N/A,,Clear,150,2012-10-04 18:45:00
9:15 PM,57.2,53.6,88,29.98,-9999.0,SE,2.3,-,N/A,,Clear,140,2012-10-04 19:15:00
9:45 PM,55.4,51.8,88,29.98,-9999.0,SE,1.2,-,N/A,,Clear,140,2012-10-04 19:45:00
10:45 PM,53.6,51.8,94,29.98,-9999.0,SE,3.5,-,N/A,,Clear,130,2012-10-04 20:45:00
11:45 PM,53.6,51.8,94,30.01,-9999.0,South,2.3,-,N/A,,Clear,190,2012-10-04 21:45:00